Location: St. Louis
(38.6270°N, 90.1994°W)
Time: 09:28:55
(UTC-06:00)

SR - Pass Details

Date: 02 December 2021
Orbit: 582 x 872 km, 66.7° (Epoch: 21 January)

Event Time Altitude Azimuth Distance (km) Brightness Sun altitude
Rises 00:09:44 0° 224° (SW) 3,024 - -72.8°
Reaches altitude 10° 00:12:13 10° 232° (SW) 2,067 - -72.7°
Maximum altitude 00:16:36 41° 303° (WNW) 913 - -72.4°
Drops below altitude 10° 00:20:45 10° 14° (NNE) 1,952 - -72.1°
Sets 00:23:03 0° 22° (NNE) 2,835 - -71.9°
